Showing default

RAPTOR1, 58957

Orbit data source: Space-Track

RAPTOR1, 58957 is a payload satellite owned by SDA (US) in LEO that was launched on Wed, 14 Feb 2024 UTC via an FALCON 9 launch vehicle from the Air Force Eastern Test Range (AFETR). Payload-class satellites include a variety of spacecraft equipped with specific instruments for various scientific and technological missions. These include communications satellites like Starlink; space stations such as the ISS; scientific satellites like the Hubble; Earth observation satellites from companies like Planet Labs, Umbra, and HawkEye 360; GPS; miniature CubeSats for education and research; and military/defense satellites.

Loading next visibility...
Identifier
58957, 2024-028C
Orbit
LEO
Country
Flag of USUS
Related business
Manufacturer
L3Harris SIS
Mission
Operational Defense Early Warn
Bus & Motor
TPL0-L3H, Unknown motor
Mass
~1,000 kg wet, ~1,000 kg dry
Launch date (UTC)
2024-02-14 (2 years ago)
Launch vehicle
FALCON 9
Launch site
Air Force Eastern Test Range (AFETR)
Object type
Payload
Rocket body
Debris
Shape & HBR
Box + 1 Pan, 1.0 m
Radar Cross Section
0.945 m², Large (>1 m²)

Expand to show TLE details & history
Last TLE update: 11 hours ago

TLE from 11 hours ago
0 RAPTOR1
1 58957U 24028C   25352.54737214 -.00000049  00000-0  32060-4 0  9999
2 58957  39.9880 153.7433 0012914 290.2568  69.6790 13.70298806 92279
Epoch: 2025-12-18T13:08Z
TLE epoch observation values (Epoch: 2025-12-18T13:08:12.952Z)
Latitude
-0.00003°
Longitude
-130.71201°
Altitude
994.682 km
Speed
7.358 km/s
True Right ascension
10h 14m 58s
True Declination
0° 00' 00"
Sunlit
Object was in daylight at epoch
Visualization orbit readout
Latitude
Unknown
Longitude
Unknown
Altitude
Unknown
Speed
Unknown
Apparent Right ascension
Unknown
Apparent Declination
Unknown
Sunlit
N/A
Visualization observer readout
Local Sidereal Time
22:47:00
Azimuth
Unknown
Elevation
Unknown
Doppler factor
Unknown
Orbital elements
Apogee altitude
1,010.305 km
Perigee altitude
991.246 km
Semi-major axis
7,378.913 km
Eccentricity
0.00129
Inclination
39.988°
RAAN
153.7433°
Arg. of periapsis
290.2568°
True anomaly
69.81785°
Mean anomaly
69.679°
Eccentric anomaly
69.74842°
Mean motion
3.42416 °/min
Orbital period
105.14 mins
BSTAR
0.00003206
Loading maneuver chart data...
Computing Atmospheric mass density...
Loading historical data...
Loading historical data...
Loading historical data...
Loading historical data...
Loading historical data...
Loading historical data...
Loading historical data...
Other satellites on launch #28 in the year 2024 (2024-02-14 UTC)

Documentation

Showing up to 5 results
|